CES5852 ZBTJ-ZSSS

Flight info

Callsign CES5852
Flight time 1h 37m
Altitude 35100
Route OMDEK DCT DOXAB W40 YQG W142 DALIM A593 VMB W161 SASAN
Aircraft A320/M-SDE3FGHILORWXY/LB1

Departure

Time 2026-04-24 06:22
Airport Tianjin Binhai International Airport (ZBTJ)

Arrival

Time 2026-04-24 07:59
Airport Shanghai Hongqiao International Airport (ZSSS)
Time Latitude Longitude Altitude Speed Heading
2026-04-24 06:00 39.12689 117.35334 19 ft 0 kts 273°
2026-04-24 06:10 39.12688 117.35346 19 ft 2 kts 271°
2026-04-24 06:11 39.12686 117.35389 21 ft 2 kts 252°
2026-04-24 06:11 39.12695 117.35406 24 ft 2 kts 200°
2026-04-24 06:11 39.12711 117.35411 20 ft 2 kts 186°
2026-04-24 06:11 39.12715 117.35412 20 ft 0 kts 184°
2026-04-24 06:14 39.12687 117.35409 20 ft 9 kts 183°
2026-04-24 06:14 39.12601 117.35403 19 ft 17 kts 184°
2026-04-24 06:15 39.12460 117.35390 19 ft 23 kts 184°
2026-04-24 06:15 39.12313 117.35378 19 ft 10 kts 186°
2026-04-24 06:15 39.12268 117.35311 19 ft 11 kts 245°
2026-04-24 06:15 39.12228 117.35201 19 ft 17 kts 245°
2026-04-24 06:16 39.12180 117.35059 19 ft 17 kts 262°
2026-04-24 06:16 39.12263 117.34979 19 ft 16 kts 335°
2026-04-24 06:16 39.12379 117.34908 19 ft 22 kts 334°
2026-04-24 06:16 39.12543 117.34808 19 ft 30 kts 334°
2026-04-24 06:17 39.12738 117.34687 20 ft 32 kts 335°
2026-04-24 06:17 39.12931 117.34569 19 ft 26 kts 334°
2026-04-24 06:17 39.13090 117.34472 21 ft 27 kts 335°
2026-04-24 06:17 39.13283 117.34354 20 ft 32 kts 334°
2026-04-24 06:18 39.13486 117.34228 20 ft 32 kts 334°
2026-04-24 06:18 39.13689 117.34104 20 ft 30 kts 334°
2026-04-24 06:18 39.13836 117.34013 19 ft 20 kts 334°
2026-04-24 06:18 39.13966 117.33934 19 ft 21 kts 334°
2026-04-24 06:19 39.14099 117.33850 21 ft 12 kts 334°
2026-04-24 06:19 39.14120 117.33811 19 ft 4 kts 247°
2026-04-24 06:19 39.14110 117.33788 19 ft 0 kts 245°
2026-04-24 06:20 39.14110 117.33787 19 ft 2 kts 245°
2026-04-24 06:20 39.14088 117.33725 19 ft 13 kts 245°
2026-04-24 06:20 39.14052 117.33630 19 ft 5 kts 244°
2026-04-24 06:20 39.14036 117.33633 19 ft 2 kts 143°
2026-04-24 06:21 39.13989 117.33664 19 ft 15 kts 155°
2026-04-24 06:21 39.13710 117.33833 22 ft 79 kts 154°
2026-04-24 06:21 39.13023 117.34255 19 ft 137 kts 154°
2026-04-24 06:21 39.12038 117.34890 154 ft 169 kts 155°
2026-04-24 06:22 39.11006 117.35561 838 ft 165 kts 158°
2026-04-24 06:22 39.09966 117.36193 1534 ft 168 kts 159°
2026-04-24 06:22 39.08847 117.36866 1931 ft 189 kts 158°
2026-04-24 06:22 39.07588 117.37624 2255 ft 211 kts 157°
2026-04-24 06:23 39.06198 117.38467 2664 ft 232 kts 158°
2026-04-24 06:23 39.04708 117.39378 3409 ft 239 kts 159°
2026-04-24 06:23 39.03197 117.40307 4306 ft 243 kts 159°
2026-04-24 06:23 39.01661 117.41253 5128 ft 247 kts 159°
2026-04-24 06:24 39.00088 117.42223 6191 ft 254 kts 159°
2026-04-24 06:24 38.98533 117.43398 7274 ft 267 kts 141°
2026-04-24 06:24 38.97407 117.45334 8435 ft 277 kts 115°
2026-04-24 06:24 38.97017 117.47765 9612 ft 282 kts 87°
2026-04-24 06:25 38.97284 117.50270 10723 ft 284 kts 80°
2026-04-24 06:25 38.97608 117.52786 11801 ft 287 kts 80°
2026-04-24 06:25 38.97930 117.55334 12881 ft 290 kts 80°
2026-04-24 06:25 38.98246 117.57914 13918 ft 294 kts 80°
2026-04-24 06:26 38.98562 117.60523 14838 ft 297 kts 80°
2026-04-24 06:26 38.98881 117.63159 15741 ft 300 kts 80°
2026-04-24 06:26 38.99038 117.65846 16544 ft 305 kts 97°
2026-04-24 06:26 38.98364 117.68418 17181 ft 307 kts 123°
2026-04-24 06:27 38.96886 117.70381 17829 ft 309 kts 149°
2026-04-24 06:27 38.94893 117.71365 18422 ft 310 kts 173°
2026-04-24 06:27 38.92751 117.71736 18966 ft 312 kts 175°
2026-04-24 06:27 38.90622 117.71664 19501 ft 311 kts 196°
2026-04-24 06:28 38.88666 117.70540 20047 ft 309 kts 219°
2026-04-24 06:28 38.87179 117.68524 20307 ft 319 kts 242°
2026-04-24 06:28 38.86431 117.65809 20439 ft 332 kts 262°
2026-04-24 06:28 38.86098 117.62806 20569 ft 348 kts 263°
2026-04-24 06:29 38.85983 117.59651 20696 ft 362 kts 275°
2026-04-24 06:29 38.86420 117.56412 20821 ft 376 kts 287°
2026-04-24 06:29 38.87313 117.53202 20952 ft 389 kts 290°
2026-04-24 06:29 38.88262 117.49897 21083 ft 401 kts 290°
2026-04-24 06:30 38.89231 117.46490 21216 ft 412 kts 290°
2026-04-24 06:30 38.90204 117.42981 21341 ft 422 kts 287°
2026-04-24 06:30 38.90822 117.39269 21541 ft 429 kts 277°
2026-04-24 06:30 38.90917 117.35431 21873 ft 432 kts 267°
2026-04-24 06:31 38.90489 117.31607 22246 ft 436 kts 257°
2026-04-24 06:31 38.89527 117.27907 22623 ft 439 kts 247°
2026-04-24 06:31 38.88138 117.24395 22983 ft 442 kts 243°
2026-04-24 06:31 38.86720 117.20946 23341 ft 444 kts 243°
2026-04-24 06:32 38.85260 117.17392 23469 ft 445 kts 243°
2026-04-24 06:32 38.83838 117.13928 23488 ft 444 kts 243°
2026-04-24 06:32 38.82396 117.10426 23491 ft 444 kts 243°
2026-04-24 06:32 38.80952 117.06926 23490 ft 444 kts 243°
2026-04-24 06:33 38.79507 117.03426 23489 ft 444 kts 243°
2026-04-24 06:33 38.78066 116.99933 23487 ft 444 kts 243°
2026-04-24 06:33 38.76625 116.96439 23489 ft 443 kts 243°
2026-04-24 06:33 38.75185 116.92949 23489 ft 443 kts 243°
2026-04-24 06:34 38.73736 116.89462 23492 ft 443 kts 243°
2026-04-24 06:34 38.72274 116.85991 23488 ft 443 kts 243°
2026-04-24 06:34 38.70801 116.82526 23487 ft 443 kts 242°
2026-04-24 06:34 38.69320 116.79066 23486 ft 443 kts 243°
2026-04-24 06:35 38.67821 116.75624 23490 ft 443 kts 239°
2026-04-24 06:35 38.65976 116.72462 23490 ft 445 kts 229°
2026-04-24 06:35 38.63694 116.69778 23486 ft 448 kts 219°
2026-04-24 06:35 38.61046 116.67668 23488 ft 450 kts 208°
2026-04-24 06:36 38.58121 116.66214 23491 ft 453 kts 198°
2026-04-24 06:36 38.55013 116.65475 23494 ft 456 kts 187°
2026-04-24 06:36 38.51853 116.65113 23493 ft 457 kts 187°
2026-04-24 06:36 38.48675 116.64748 23771 ft 459 kts 187°
2026-04-24 06:37 38.45487 116.64380 24079 ft 461 kts 187°
2026-04-24 06:37 38.42292 116.64012 24387 ft 462 kts 187°
2026-04-24 06:37 38.39088 116.63644 24696 ft 463 kts 187°
2026-04-24 06:37 38.35875 116.63281 25001 ft 464 kts 187°
2026-04-24 06:38 38.32650 116.62927 25293 ft 466 kts 186°
2026-04-24 06:38 38.29404 116.62967 25652 ft 468 kts 177°
2026-04-24 06:38 38.26192 116.63623 26079 ft 469 kts 168°
2026-04-24 06:38 38.23055 116.64760 26494 ft 468 kts 166°
2026-04-24 06:39 38.19934 116.65930 26926 ft 466 kts 166°
2026-04-24 06:39 38.16827 116.67087 27372 ft 464 kts 166°
2026-04-24 06:39 38.13772 116.68217 27816 ft 463 kts 166°
2026-04-24 06:39 38.10688 116.69357 28259 ft 461 kts 166°
2026-04-24 06:40 38.07617 116.70504 28695 ft 460 kts 166°
2026-04-24 06:40 38.04558 116.71670 29141 ft 458 kts 166°
2026-04-24 06:40 38.01513 116.72844 29594 ft 456 kts 166°
2026-04-24 06:40 37.98479 116.74015 30044 ft 454 kts 166°
2026-04-24 06:41 37.95457 116.75174 30415 ft 453 kts 166°
2026-04-24 06:41 37.92444 116.76319 30779 ft 452 kts 166°
2026-04-24 06:41 37.89433 116.77456 31126 ft 451 kts 166°
2026-04-24 06:41 37.86433 116.78587 31479 ft 450 kts 166°
2026-04-24 06:42 37.83431 116.79721 31830 ft 449 kts 166°
2026-04-24 06:42 37.80446 116.80850 32186 ft 448 kts 166°
2026-04-24 06:42 37.77462 116.81981 32538 ft 447 kts 166°
2026-04-24 06:42 37.74485 116.83109 32883 ft 446 kts 166°
2026-04-24 06:43 37.71512 116.84236 33234 ft 445 kts 166°
2026-04-24 06:43 37.68547 116.85356 33579 ft 445 kts 167°
2026-04-24 06:43 37.65585 116.86473 33917 ft 444 kts 167°
2026-04-24 06:43 37.62630 116.87586 34198 ft 443 kts 167°
2026-04-24 06:44 37.59671 116.88698 34440 ft 444 kts 167°
2026-04-24 06:44 37.56711 116.89812 34674 ft 444 kts 167°
2026-04-24 06:44 37.53745 116.90927 34897 ft 445 kts 167°
2026-04-24 06:44 37.50770 116.92045 35009 ft 447 kts 167°
2026-04-24 06:45 37.47769 116.93169 35035 ft 452 kts 167°
2026-04-24 06:45 37.42745 116.95049 35031 ft 454 kts 167°
2026-04-24 06:46 37.36685 116.97322 35037 ft 455 kts 167°
2026-04-24 06:46 37.30622 116.99597 35039 ft 455 kts 167°
2026-04-24 06:47 37.24601 117.02113 35041 ft 457 kts 163°
2026-04-24 06:47 37.18661 117.04988 35036 ft 458 kts 162°
2026-04-24 06:48 37.12730 117.07892 35035 ft 457 kts 163°
2026-04-24 06:48 37.06777 117.10683 35031 ft 457 kts 163°
2026-04-24 06:49 37.00812 117.13439 35030 ft 457 kts 163°
2026-04-24 06:49 36.94891 117.16190 35030 ft 457 kts 163°
2026-04-24 06:50 36.88928 117.18956 35031 ft 457 kts 163°
2026-04-24 06:50 36.82870 117.21228 35037 ft 451 kts 175°
2026-04-24 06:51 36.76651 117.21541 35039 ft 446 kts 184°
2026-04-24 06:51 36.70436 117.21498 35044 ft 447 kts 184°
2026-04-24 06:52 36.64210 117.21465 35048 ft 447 kts 184°
2026-04-24 06:52 36.57985 117.21433 35053 ft 448 kts 184°
2026-04-24 06:53 36.51749 117.21383 35056 ft 448 kts 184°
2026-04-24 06:53 36.45513 117.21335 35063 ft 448 kts 184°
2026-04-24 06:54 36.39291 117.22231 35071 ft 456 kts 168°
2026-04-24 06:54 36.33198 117.24498 35071 ft 457 kts 167°
2026-04-24 06:55 36.27100 117.26775 35075 ft 458 kts 167°
2026-04-24 06:55 36.21001 117.29043 35075 ft 458 kts 167°
2026-04-24 06:56 36.14891 117.31307 35078 ft 458 kts 167°
2026-04-24 06:56 36.08780 117.33565 35077 ft 459 kts 167°
2026-04-24 06:57 36.02667 117.35821 35079 ft 459 kts 167°
2026-04-24 06:57 35.96585 117.38069 35086 ft 459 kts 167°
2026-04-24 06:58 35.90468 117.40358 35085 ft 460 kts 167°
2026-04-24 06:58 35.84474 117.42620 34991 ft 437 kts 167°
2026-04-24 06:58 35.81609 117.43706 34867 ft 425 kts 167°
2026-04-24 06:59 35.78825 117.44756 34744 ft 413 kts 168°
2026-04-24 06:59 35.76112 117.45772 34604 ft 402 kts 168°
2026-04-24 06:59 35.73450 117.46760 34260 ft 397 kts 168°
2026-04-24 06:59 35.70808 117.47735 33792 ft 396 kts 168°
2026-04-24 07:00 35.68169 117.48706 33243 ft 396 kts 167°
2026-04-24 07:00 35.65533 117.49679 32654 ft 396 kts 167°
2026-04-24 07:00 35.62887 117.50661 32078 ft 397 kts 167°
2026-04-24 07:00 35.60241 117.51645 31500 ft 398 kts 166°
2026-04-24 07:01 35.57583 117.52635 30926 ft 399 kts 166°
2026-04-24 07:01 35.54923 117.53621 30348 ft 400 kts 166°
2026-04-24 07:01 35.52252 117.54610 29714 ft 401 kts 166°
2026-04-24 07:01 35.49580 117.55601 29212 ft 401 kts 166°
2026-04-24 07:02 35.46904 117.56591 29091 ft 402 kts 166°
2026-04-24 07:02 35.41525 117.58573 29117 ft 404 kts 166°
2026-04-24 07:03 35.36135 117.60559 29129 ft 405 kts 166°
2026-04-24 07:03 35.30741 117.62550 29126 ft 405 kts 166°
2026-04-24 07:04 35.25348 117.64535 29123 ft 405 kts 166°
2026-04-24 07:04 35.19987 117.66509 29118 ft 405 kts 166°
2026-04-24 07:05 35.14562 117.68506 29120 ft 405 kts 166°
2026-04-24 07:05 35.09168 117.70488 29119 ft 405 kts 166°
2026-04-24 07:06 35.03809 117.72443 29115 ft 405 kts 166°
2026-04-24 07:06 34.98418 117.74418 29116 ft 405 kts 166°
2026-04-24 07:07 34.93023 117.76397 29117 ft 404 kts 166°
2026-04-24 07:07 34.84934 117.79349 29118 ft 405 kts 166°
2026-04-24 07:08 34.79533 117.81319 29118 ft 405 kts 167°
2026-04-24 07:08 34.74127 117.83272 29121 ft 405 kts 167°
2026-04-24 07:09 34.68713 117.85216 29127 ft 406 kts 167°
2026-04-24 07:09 34.63293 117.87165 29124 ft 406 kts 167°
2026-04-24 07:10 34.57868 117.89104 29123 ft 407 kts 167°
2026-04-24 07:10 34.52439 117.91044 29116 ft 407 kts 168°
2026-04-24 07:11 34.47006 117.92992 29115 ft 407 kts 168°
2026-04-24 07:11 34.41565 117.94943 29111 ft 408 kts 168°
2026-04-24 07:12 34.36120 117.96890 29120 ft 408 kts 168°
2026-04-24 07:12 34.30669 117.98857 29118 ft 410 kts 166°
2026-04-24 07:13 34.25494 118.01901 29118 ft 420 kts 151°
2026-04-24 07:13 34.20735 118.06044 29125 ft 422 kts 149°
2026-04-24 07:14 34.15972 118.10207 29120 ft 423 kts 149°
2026-04-24 07:14 34.11194 118.14365 29123 ft 424 kts 149°
2026-04-24 07:15 34.06409 118.18527 29120 ft 425 kts 149°
2026-04-24 07:15 34.01613 118.22699 29118 ft 425 kts 149°
2026-04-24 07:16 33.96849 118.26852 29118 ft 426 kts 149°
2026-04-24 07:16 33.92019 118.31079 29116 ft 427 kts 149°
2026-04-24 07:17 33.87252 118.35263 29122 ft 428 kts 149°
2026-04-24 07:17 33.82441 118.39485 29125 ft 428 kts 149°
2026-04-24 07:18 33.77615 118.43706 29128 ft 429 kts 150°
2026-04-24 07:18 33.72784 118.47916 29128 ft 429 kts 150°
2026-04-24 07:19 33.67943 118.52120 29135 ft 429 kts 150°
2026-04-24 07:19 33.63102 118.56324 29133 ft 430 kts 150°
2026-04-24 07:20 33.58261 118.60541 29133 ft 430 kts 150°
2026-04-24 07:20 33.53417 118.64750 29132 ft 430 kts 150°
2026-04-24 07:21 33.48560 118.68953 29133 ft 431 kts 150°
2026-04-24 07:21 33.43702 118.73169 29139 ft 431 kts 150°
2026-04-24 07:22 33.38847 118.77384 29144 ft 431 kts 150°
2026-04-24 07:22 33.33997 118.81599 29139 ft 431 kts 150°
2026-04-24 07:23 33.29141 118.85804 29141 ft 431 kts 150°
2026-04-24 07:23 33.24293 118.90022 29137 ft 431 kts 150°
2026-04-24 07:24 33.19453 118.94264 29136 ft 431 kts 150°
2026-04-24 07:24 33.14602 118.98479 29144 ft 431 kts 150°
2026-04-24 07:25 33.09735 119.02670 29141 ft 432 kts 150°
2026-04-24 07:25 33.04902 119.06839 29136 ft 432 kts 150°
2026-04-24 07:26 33.00005 119.11062 29134 ft 432 kts 150°
2026-04-24 07:26 32.99716 119.11311 29133 ft 432 kts 150°
2026-04-24 07:28 32.95959 119.14535 29136 ft 432 kts 150°
2026-04-24 07:28 32.91088 119.18739 29133 ft 433 kts 150°
2026-04-24 07:29 32.86239 119.22979 29139 ft 433 kts 150°
2026-04-24 07:29 32.81382 119.27237 29134 ft 434 kts 150°
2026-04-24 07:30 32.76516 119.31481 29133 ft 434 kts 150°
2026-04-24 07:30 32.71634 119.35722 29135 ft 435 kts 151°
2026-04-24 07:31 32.66742 119.39953 29132 ft 435 kts 151°
2026-04-24 07:31 32.61846 119.44196 29130 ft 436 kts 151°
2026-04-24 07:32 32.56940 119.48443 29132 ft 437 kts 151°
2026-04-24 07:32 32.52859 119.51973 29135 ft 437 kts 152°
2026-04-24 07:33 32.47139 119.56916 29138 ft 438 kts 152°
2026-04-24 07:33 32.42207 119.61158 29136 ft 438 kts 152°
2026-04-24 07:34 32.37232 119.65394 29161 ft 449 kts 152°
2026-04-24 07:34 32.32885 119.69070 29098 ft 470 kts 152°
2026-04-24 07:35 32.30178 119.71356 28818 ft 487 kts 152°
2026-04-24 07:35 32.27386 119.73720 28550 ft 500 kts 151°
2026-04-24 07:35 32.24543 119.76144 28278 ft 506 kts 151°
2026-04-24 07:35 32.21725 119.78562 28014 ft 509 kts 150°
2026-04-24 07:36 32.18863 119.81027 27749 ft 510 kts 150°
2026-04-24 07:36 32.15996 119.83498 27489 ft 510 kts 150°
2026-04-24 07:36 32.13129 119.85962 27224 ft 510 kts 150°
2026-04-24 07:36 32.10261 119.88413 26966 ft 510 kts 150°
2026-04-24 07:37 32.07382 119.90863 26713 ft 510 kts 150°
2026-04-24 07:37 32.04506 119.93305 26467 ft 510 kts 150°
2026-04-24 07:37 32.01592 119.95785 26208 ft 510 kts 150°
2026-04-24 07:37 31.98761 119.98208 25958 ft 510 kts 149°
2026-04-24 07:38 31.95897 120.00670 25716 ft 510 kts 149°
2026-04-24 07:38 31.93035 120.03138 25473 ft 510 kts 149°
2026-04-24 07:38 31.90167 120.05607 25231 ft 510 kts 149°
2026-04-24 07:38 31.87262 120.08101 24987 ft 510 kts 149°
2026-04-24 07:39 31.84431 120.10526 24690 ft 510 kts 149°
2026-04-24 07:39 31.81568 120.12977 23578 ft 511 kts 148°
2026-04-24 07:39 31.78689 120.15436 22520 ft 509 kts 148°
2026-04-24 07:39 31.75868 120.17849 21792 ft 493 kts 147°
2026-04-24 07:40 31.73125 120.20197 20594 ft 480 kts 147°
2026-04-24 07:40 31.70427 120.22475 19845 ft 476 kts 147°
2026-04-24 07:40 31.67734 120.24716 19017 ft 474 kts 147°
2026-04-24 07:40 31.65044 120.26934 18196 ft 471 kts 147°
2026-04-24 07:41 31.62430 120.29215 17477 ft 466 kts 141°
2026-04-24 07:41 31.60160 120.31924 16737 ft 463 kts 130°
2026-04-24 07:41 31.58354 120.35009 16116 ft 457 kts 120°
2026-04-24 07:41 31.57034 120.38373 15477 ft 451 kts 109°
2026-04-24 07:42 31.56013 120.41821 14817 ft 445 kts 108°
2026-04-24 07:42 31.55001 120.45227 14213 ft 439 kts 109°
2026-04-24 07:42 31.53996 120.48584 13589 ft 433 kts 109°
2026-04-24 07:42 31.53002 120.51889 12951 ft 426 kts 109°
2026-04-24 07:43 31.52022 120.55151 12228 ft 422 kts 109°
2026-04-24 07:43 31.51057 120.58369 11587 ft 415 kts 109°
2026-04-24 07:43 31.50118 120.61509 11328 ft 400 kts 109°
2026-04-24 07:43 31.49217 120.64518 11202 ft 383 kts 109°
2026-04-24 07:44 31.48358 120.67396 11086 ft 367 kts 109°
2026-04-24 07:44 31.47531 120.70157 10958 ft 352 kts 109°
2026-04-24 07:44 31.46733 120.72814 10834 ft 339 kts 109°
2026-04-24 07:44 31.45965 120.75368 10715 ft 327 kts 109°
2026-04-24 07:45 31.45223 120.77835 10588 ft 316 kts 109°
2026-04-24 07:45 31.44505 120.80218 10451 ft 306 kts 109°
2026-04-24 07:45 31.43804 120.82549 10209 ft 301 kts 109°
2026-04-24 07:45 31.43114 120.84843 10056 ft 297 kts 108°
2026-04-24 07:46 31.42427 120.87122 9820 ft 297 kts 109°
2026-04-24 07:46 31.41741 120.89388 9529 ft 294 kts 109°
2026-04-24 07:46 31.41061 120.91628 9247 ft 291 kts 109°
2026-04-24 07:46 31.40394 120.93828 8994 ft 289 kts 109°
2026-04-24 07:47 31.39723 120.96043 8766 ft 287 kts 109°
2026-04-24 07:47 31.39048 120.98274 8609 ft 287 kts 109°
2026-04-24 07:47 31.38382 121.00472 8450 ft 286 kts 109°
2026-04-24 07:47 31.37716 121.02662 8289 ft 285 kts 109°
2026-04-24 07:48 31.37061 121.04810 8130 ft 284 kts 109°
2026-04-24 07:48 31.36397 121.06988 7981 ft 283 kts 109°
2026-04-24 07:48 31.35737 121.09151 7810 ft 282 kts 109°
2026-04-24 07:48 31.35086 121.11288 7655 ft 281 kts 109°
2026-04-24 07:49 31.34424 121.13433 7482 ft 280 kts 109°
2026-04-24 07:49 31.33757 121.15569 7320 ft 279 kts 110°
2026-04-24 07:49 31.33094 121.17692 7153 ft 278 kts 110°
2026-04-24 07:49 31.32230 121.19703 6990 ft 277 kts 127°
2026-04-24 07:50 31.30846 121.21245 6826 ft 276 kts 147°
2026-04-24 07:50 31.29094 121.22134 6669 ft 275 kts 167°
2026-04-24 07:50 31.27193 121.22352 6501 ft 275 kts 177°
2026-04-24 07:50 31.25281 121.22454 6337 ft 275 kts 177°
2026-04-24 07:51 31.23376 121.22560 6171 ft 274 kts 177°
2026-04-24 07:51 31.21471 121.22668 6008 ft 274 kts 177°
2026-04-24 07:51 31.19567 121.22776 5812 ft 274 kts 177°
2026-04-24 07:51 31.17668 121.22879 5506 ft 273 kts 177°
2026-04-24 07:52 31.15779 121.22981 5216 ft 271 kts 177°
2026-04-24 07:52 31.13895 121.23084 4926 ft 270 kts 177°
2026-04-24 07:52 31.12018 121.23187 4637 ft 269 kts 177°
2026-04-24 07:52 31.10151 121.23288 4354 ft 269 kts 176°
2026-04-24 07:53 31.08294 121.23390 4147 ft 262 kts 176°
2026-04-24 07:53 31.06517 121.23489 4045 ft 249 kts 176°
2026-04-24 07:53 31.04824 121.23584 3940 ft 238 kts 176°
2026-04-24 07:53 31.03212 121.23755 3831 ft 229 kts 162°
2026-04-24 07:54 31.01894 121.24699 3743 ft 223 kts 128°
2026-04-24 07:54 31.01266 121.26319 3458 ft 221 kts 94°
2026-04-24 07:54 31.01304 121.28104 3171 ft 220 kts 86°
2026-04-24 07:54 31.01386 121.29877 2905 ft 218 kts 86°
2026-04-24 07:55 31.01462 121.31605 2830 ft 210 kts 86°
2026-04-24 07:55 31.01648 121.33257 2730 ft 203 kts 66°
2026-04-24 07:55 31.02602 121.34362 2638 ft 195 kts 20°
2026-04-24 07:55 31.03924 121.34471 2466 ft 189 kts 358°
2026-04-24 07:56 31.05190 121.34409 2308 ft 182 kts 359°
2026-04-24 07:56 31.06435 121.34346 2164 ft 176 kts 360°
2026-04-24 07:56 31.07618 121.34283 2053 ft 164 kts 360°
2026-04-24 07:56 31.08724 121.34224 1878 ft 156 kts 359°
2026-04-24 07:57 31.09788 121.34167 1730 ft 149 kts 360°
2026-04-24 07:57 31.10796 121.34113 1508 ft 146 kts
2026-04-24 07:57 31.11807 121.34059 1313 ft 146 kts
2026-04-24 07:57 31.12832 121.34004 1125 ft 145 kts
2026-04-24 07:58 31.13820 121.33949 923 ft 143 kts 360°
2026-04-24 07:58 31.14808 121.33885 714 ft 142 kts 359°
2026-04-24 07:58 31.15785 121.33828 556 ft 140 kts
2026-04-24 07:58 31.16757 121.33788 373 ft 139 kts 359°
2026-04-24 07:59 31.17729 121.33739 184 ft 139 kts 360°
2026-04-24 07:59 31.18696 121.33687 29 ft 133 kts 359°
2026-04-24 07:59 31.19511 121.33645 20 ft 95 kts 357°
2026-04-24 07:59 31.19997 121.33617 19 ft 45 kts 357°
2026-04-24 08:00 31.20208 121.33596 17 ft 27 kts 344°
2026-04-24 08:00 31.20369 121.33509 21 ft 16 kts 329°
2026-04-24 08:00 31.20420 121.33474 19 ft 7 kts 329°
2026-04-24 08:00 31.20460 121.33446 19 ft 6 kts 329°
2026-04-24 08:01 31.20501 121.33417 20 ft 10 kts 329°
2026-04-24 08:01 31.20521 121.33340 19 ft 10 kts 268°
2026-04-24 08:01 31.20518 121.33256 20 ft 14 kts 267°
2026-04-24 08:01 31.20511 121.33108 20 ft 21 kts 267°
2026-04-24 08:02 31.20506 121.32964 19 ft 7 kts 265°
2026-04-24 08:02 31.20473 121.32936 19 ft 7 kts 189°
2026-04-24 08:02 31.20394 121.32941 19 ft 17 kts 177°
2026-04-24 08:02 31.20259 121.32948 19 ft 21 kts 177°
2026-04-24 08:03 31.20106 121.32956 19 ft 23 kts 178°
2026-04-24 08:03 31.19942 121.32965 19 ft 22 kts 177°
2026-04-24 08:03 31.19798 121.32973 19 ft 14 kts 177°
2026-04-24 08:03 31.19728 121.32951 20 ft 10 kts 244°
2026-04-24 08:04 31.19724 121.32876 20 ft 9 kts 267°
2026-04-24 08:04 31.19721 121.32785 19 ft 18 kts 267°
2026-04-24 08:04 31.19718 121.32704 19 ft 6 kts 270°
2026-04-24 08:04 31.19746 121.32689 19 ft 4 kts 356°
2026-04-24 08:05 31.19772 121.32687 19 ft 3 kts 357°
2026-04-24 08:05 31.19792 121.32686 19 ft 2 kts 358°
2026-04-24 08:05 31.19805 121.32685 19 ft 1 kts 357°
2026-04-24 08:05 31.19809 121.32685 19 ft 0 kts 357°
2026-04-24 08:06 31.19808 121.32685 19 ft 0 kts 357°
2026-04-24 09:02 31.19807 121.32685 19 ft 0 kts 357°
2026-04-24 09:34 31.19806 121.32685 19 ft 0 kts 357°
2026-04-24 10:08 31.19805 121.32685 19 ft 0 kts 357°